Regional Weather Roundup
Issued by NWS

Home | Current Version | Previous Version | Graphics & Text | Print | Product List | Glossary On
Versions: 1 2 3 4 5 6 7 8 9 10 11 12 13 14 15 16 17 18 19 20 21 22 23 24 25 26 27 28 29 30 31 32 33 34 35 36 37 38 39 40 41 42 43 44 45 46 47 48 49 50
539
ASUS43 KIND 301409
RWRIN

WEATHER ROUNDUP FOR INDIANA
NATIONAL WEATHER SERVICE INDIANAPOLIS IN
1000 AM EDT SUN APR 30 2017

NOTE: "FAIR" INDICATES FEW OR NO CLOUDS BELOW 12,000 FEET WITH NO
SIGNIFICANT WEATHER AND/OR OBSTRUCTIONS TO VISIBILITY.

* - STATION DOES NOT REPORT WEATHER SUCH AS PRECIPITATION OR FOG.

+ - STATION NOT QUALITY CONTROLLED BY THE NATIONAL WEATHER SERVICE.
    USE DATA WITH CAUTION...ESPECIALLY DEWPOINT AND RELATIVE
    HUMIDITY OBSERVATIONS.

INZ001>003-010>013-019-020-301500-
NORTHWEST INDIANA

CITY           SKY/WX    TMP DP  RH WIND       PRES   REMARKS
GARY /AIRPORT/ LGT RAIN  48  46  93 VRB5      29.81F FOG
KNOX *+        CLOUDY    46  41  81 E10       29.79F
LA PORTE +     LGT RAIN  46  46  98 E13       29.81F
MICHIGAN CITY+ LGT RAIN  46  46 100 E5        29.82F
MONTICELLO +   CLOUDY    50  49  95 E9        29.76F FOG
RENSSELAER +   LGT RAIN  48  46  93 E13       29.78F
VALPARAISO     LGT RAIN  48  47  96 E16       29.79F FOG

$$

LMZ046-743>745-301500-
SOUTHERN LAKE MICHIGAN

STATION/POSITION TIME  TEMP    WIND        PRES    WAVE
                       AIR SEA DIR/SP/G            HT
                 (UTC) (F)     (DEG/KT/KT) (MB)    (FT)
BURNS HARBOR     1302   47      70/ 11/ 13 1011.2
MICHIGAN CITY    1340   46      70/  9/ 12   N/A
5NW MICH CITY    1400   46 48                N/A     3

$$

INZ004-005-014>016-021>024-301500-
NORTH CENTRAL INDIANA

CITY           SKY/WX    TMP DP  RH WIND       PRES   REMARKS
ELKHART        RAIN      46  45  93 E8        29.87F
GOSHEN         RAIN      47  44  90 E10       29.85F FOG
LOGANSPORT +   CLOUDY    48  46  93 E12       29.80F FOG
ROCHESTER +    LGT RAIN  50  50 100 E13       29.82F
SOUTH BEND     RAIN      46  46 100 E12       29.85F FOG
WARSAW +       RAIN      46  45  93 E8        29.84F

$$

INZ006>009-017-018-025>027-301500-
NORTHEAST INDIANA

CITY           SKY/WX    TMP DP  RH WIND       PRES   REMARKS
ANGOLA *+      CLOUDY    46  37  71 E12       29.90F
AUBURN +       FOG       48  46  93 E9        29.89F VSB 3/4
FORT WAYNE     FOG       49  47  93 E12       29.88F VSB 1/2
HUNTINGTON +   LGT RAIN N/A N/A N/A E8        29.86F VSB 3/4
KENDALLVILLE + LGT RAIN  46  46 100 E12       29.88F VSB 3/4

$$

INZ028-029-035-036-043>045-051>053-301500-
WEST CENTRAL INDIANA

CITY           SKY/WX    TMP DP  RH WIND       PRES   REMARKS
CRAWFORDSVL +  CLOUDY    63  63 100 S17       29.77R
GREENCASTLE +  CLOUDY    68  63  83 S7        29.79S FOG
LAFAYETTE      CLOUDY    53  53 100 E9        29.77F FOG
TERRE HAUTE    LGT RAIN  67  62  84 SW14      29.79R

$$

INZ030>032-037>040-046>048-054>057-064-065-301500-
CENTRAL INDIANA

CITY           SKY/WX    TMP DP  RH WIND       PRES   REMARKS
CP ATTERBURY + CLOUDY    70  64  83 S15G23    29.85S
COLUMBUS       MOSUNNY   70  64  83 S16G25    29.86R
FISHERS *+     MOSUNNY   68  66  94 S22G30    29.81S
FRANKFORT +    PTSUNNY   60  58  95 SE12      29.79F FOG
GREENWOOD *+   CLOUDY    69  64  84 S18G28    29.84R
INDIANAPOLIS   CLOUDY    70  64  81 S23G33    29.80R
-EAGLE CREEK   CLOUDY    69  64  84 S15G22    29.79S
KOKOMO +       CLOUDY    52  51  97 E13       29.81F FOG
MARION +       CLOUDY    54  54 100 E10       29.82F FOG
MT COMFORT *+  MOSUNNY   68  64  88 S17G25    29.82S
SHELBYVILLE    PTSUNNY   73  64  73 S18G24    29.84S
ZIONSVILLE +   CLOUDY    65  63  91 S13G20    29.80R

$$

INZ033-034-041-042-049-050-058-059-301500-
EAST CENTRAL INDIANA

CITY           SKY/WX    TMP DP  RH WIND       PRES   REMARKS
MUNCIE         CLOUDY    69  62  78 S16G23    29.82F
RICHMOND +     MOSUNNY   66  63  88 S15G21    29.90F FOG

$$

INZ060-061-067>069-081>083-085>088-301500-
SOUTHWEST INDIANA

CITY           SKY/WX    TMP DP  RH WIND       PRES   REMARKS
EVANSVILLE     RAIN      66  64  93 S7G17     29.90R FOG
WASHINGTON +   DRIZZLE   67  65  93 S16       29.86R

$$

INZ062-063-066-070>080-084-089>092-301500-
SOUTH CENTRAL AND SOUTHEAST INDIANA

CITY           SKY/WX    TMP DP  RH WIND       PRES   REMARKS
BLOOMINGTON    LGT RAIN  69  63  81 S15       29.84R
MADISON *+     CLOUDY    73  63  68 S18G25    29.93R
NORTH VERNON + CLOUDY    70  64  83 S17G25    29.89R
SEYMOUR +      CLOUDY    73  66  78 S15       29.88R

$$





USA.gov is the U.S. government's official web portal to all federal, state and local government web resources and services.